EW5855 Weather Reports


Display with metric or nautical units.
time (UTC)temp
F
wind
direction
speed
MPH
gust
MPH
rain 1hr
in
rain 24hr
in
rain mn
in
humidity
%
barometer
mb
20260505025521 52 238 0.0 4.0 0.00 0.00 0.00 75 1006.4
20260505024517 51 0.0 0.0 0.00 0.00 0.00 78 1006.5
20260505023533 51 0.0 0.0 0.00 0.00 0.00 79 1006.5
20260505022529 51 0.0 0.0 0.00 0.00 0.00 80 1006.7
20260505021525 50 0.0 0.0 0.00 0.00 0.00 83 1006.8
20260505020541 51 0.0 0.0 0.00 0.00 0.00 82 1006.7
20260505015517 51 0.0 0.0 0.00 0.00 0.00 81 1006.8
20260505014554 52 0.0 0.0 0.00 0.00 0.00 79 1006.6
20260505013530 54 0.0 0.0 0.00 0.00 0.00 76 1006.5
20260505012546 54 203 0.0 1.0 0.00 0.00 0.00 73 1006.5
20260505011522 55 0.0 0.0 0.00 0.00 0.00 71 1006.5
20260505010538 54 0.0 0.0 0.00 0.00 0.00 74 1006.5
20260505005535 55 0.0 0.0 0.00 0.00 0.00 72 1006.4
20260505004530 56 0.0 0.0 0.00 0.00 0.00 69 1006.2
20260505003526 58 0.0 0.0 0.00 0.00 0.00 63 1006.1
20260505002523 59 0.0 0.0 0.00 0.00 0.00 64 1006.1
20260505001519 60 0.0 0.0 0.00 0.00 0.00 60 1006.0
20260505000535 61 0.0 0.0 0.00 0.00 0.00 58 1005.9
20260504235531 62 0.0 0.0 0.00 0.00 0.00 58 1005.7
20260504234526 65 0.0 0.0 0.00 0.00 0.00 53 1005.7
20260504233523 67 0.0 0.0 0.00 0.00 0.00 48 1005.6
20260504232518 68 222 1.0 4.0 0.00 0.00 0.00 47 1005.5
20260504231534 68 257 0.0 3.0 0.00 0.00 0.00 46 1005.4
20260504230531 69 232 2.0 4.0 0.00 0.00 0.00 45 1005.3
20260504225527 69 226 2.0 7.0 0.00 0.00 0.00 44 1005.2
20260504224543 69 221 2.0 4.0 0.00 0.00 0.00 45 1005.1
20260504223519 70 236 2.0 6.0 0.00 0.00 0.00 44 1005.0
20260504222535 71 248 4.0 10.0 0.00 0.00 0.00 42 1005.0
20260504221531 71 225 3.0 7.0 0.00 0.00 0.00 43 1005.0
20260504220527 70 248 7.0 15.0 0.00 0.00 0.00 43 1005.1
20260504215524 71 256 5.0 10.0 0.00 0.00 0.00 44 1005.0
20260504214520 71 216 5.0 10.0 0.00 0.00 0.00 42 1005.1
20260504213516 71 248 6.0 13.0 0.00 0.00 0.00 42 1005.1
20260504212533 71 200 7.0 16.0 0.00 0.00 0.00 42 1005.0
20260504211529 71 242 4.0 7.0 0.00 0.00 0.00 43 1005.0
20260504210525 70 260 10.0 17.0 0.00 0.00 0.00 41 1005.3
20260504205521 70 257 7.0 15.0 0.00 0.00 0.00 43 1005.4
20260504204518 70 267 6.0 11.0 0.00 0.00 0.00 43 1005.3
20260504203534 71 267 8.0 15.0 0.00 0.00 0.00 43 1005.5
20260504202529 70 238 6.0 11.0 0.00 0.00 0.00 44 1005.5
20260504201525 70 230 6.0 14.0 0.00 0.00 0.00 44 1005.5
20260504200521 69 252 9.0 17.0 0.00 0.00 0.00 44 1005.7
20260504195517 68 256 7.0 15.0 0.00 0.00 0.00 45 1005.7
20260504194532 70 263 7.0 18.0 0.00 0.00 0.00 45 1005.9
20260504193528 69 252 8.0 16.0 0.00 0.00 0.00 45 1006.1
20260504192524 67 249 7.0 15.0 0.00 0.00 0.00 46 1006.1
20260504191519 67 252 7.0 14.0 0.00 0.00 0.00 46 1006.1
20260504190516 67 235 6.0 14.0 0.00 0.00 0.00 46 1006.1
20260504185611 67 252 7.0 16.0 0.00 0.00 0.00 46 1006.3
20260504184527 67 219 8.0 17.0 0.00 0.00 0.00 46 1006.3
20260504183524 66 256 9.0 19.0 0.00 0.00 0.00 47 1006.5
20260504182520 66 248 8.0 15.0 0.00 0.00 0.00 47 1006.6
20260504181535 66 245 10.0 18.0 0.00 0.00 0.00 47 1006.4
20260504180531 66 257 9.0 18.0 0.00 0.00 0.00 47 1006.4
20260504175547 66 265 12.0 22.0 0.00 0.00 0.00 47 1006.5
20260504174523 64 262 11.0 18.0 0.00 0.00 0.00 48 1006.7
20260504173519 64 250 10.0 21.0 0.00 0.00 0.00 48 1006.7
20260504172535 63 248 8.0 21.0 0.00 0.00 0.00 49 1007.0
20260504171532 63 254 9.0 16.0 0.00 0.00 0.00 49 1007.0
20260504170528 64 263 10.0 21.0 0.00 0.00 0.00 49 1007.2
20260504150522 58 234 2.0 6.0 0.00 0.00 0.00 55 1008.4
20260504140520 55 263 6.0 16.0 0.00 0.00 0.00 56 1008.6
20260504130534 53 223 1.0 3.0 0.00 0.00 0.00 63 1008.9
20260504110525 46 237 0.0 2.0 0.00 0.00 0.00 80 1009.1
20260504100520 45 0.0 0.0 0.00 0.00 0.00 80 1009.0
20260504081518 46 0.0 0.0 0.00 0.00 0.00 84 1009.5
20260504080534 45 252 2.0 4.0 0.00 0.00 0.00 85 1009.5
20260504050523 47 231 2.0 2.0 0.00 0.00 0.00 74 1010.1
20260504045523 47 229 4.0 9.0 0.00 0.00 0.00 75 1009.9
20260504044520 47 251 4.0 9.0 0.00 0.00 0.00 74 1010.0
20260504043537 46 227 2.0 6.0 0.00 0.00 0.00 74 1010.1
20260504042533 43 203 1.0 4.0 0.00 0.00 0.00 80 1010.2
20260504041529 42 0.0 0.0 0.00 0.00 0.00 82 1010.2
20260504040525 41 0.0 0.0 0.00 0.00 0.00 83 1010.1
20260504035522 40 0.0 0.0 0.00 0.00 0.00 85 1010.1
20260504034538 40 0.0 0.0 0.00 0.00 0.00 84 1010.0
20260504033615 40 0.0 0.0 0.00 0.00 0.00 84 1010.0
20260504032530 39 0.0 0.0 0.00 0.00 0.00 84 1010.0
20260504031526 39 0.0 0.0 0.00 0.00 0.00 82 1009.9
20260504030542 39 0.0 0.0 0.00 0.00 0.00 82 1009.9